Regional Weather Roundup
Issued by NWS State College, PA

Home | Current Version | Previous Version | Text Only | Print | Product List | Glossary Off
Versions: 1 2 3 4 5 6 7 8 9 10 11 12 13 14 15 16 17 18 19 20 21 22 23 24 25 26 27 28 29 30 31 32 33 34 35 36 37 38 39 40 41 42 43 44 45 46 47 48 49 50

000
ASUS41 KCTP 301010
RWRCTP

REGIONAL WEATHER ROUNDUP
NATIONAL WEATHER SERVICE STATE COLLEGE PA
500 AM EST FRI JAN 30 2015

Note: "fair" indicates few or no clouds below 12,000 feet with no
significant weather and/or obstructions to visibility.

* = STATION THAT DOES NOT REPORT PRECIPITATION /E.G. RAIN...SNOW...ETC/
    THUNDER OR FOG.

PAZ002>004-007>009-013>016-020>023-029>032-301100-
WESTERN PENNSYLVANIA

CITY           SKY/WX    TMP DP  RH WIND       PRES   REMARKS
ERIE           CLOUDY    26  20  77 W12G24    30.05R
MEADVILLE      SNOW      23  19  85 NW13G21   30.00R VSB 1/2 WCI  11
FRANKLIN*      CLOUDY    25  19  80 W9G21     29.99R
NEW CASTLE     FLURRIES  25  21  84 W10G17    30.06R
BEAVER COUNTY  NOT AVBL
BUTLER*        CLOUDY    27  25  93 W12G18    30.03R
PITTSBURGH INT LGT SNOW  29  26  89 NW18      30.02R
PITTSBURGH     LGT SNOW  30  25  81 NW8       30.00R
INDIANA*       CLOUDY    30  28  93 NW12G17   29.99R FOG
LATROBE        LGT SNOW  30  30 100 SW6       30.01R
WASHINGTON CO* CLOUDY    28  27  93 NW10G26   30.05R
$$

PAZ004>006-010>012-017>019-024>028-033>037-041-042-045-046-049>053-301100-
CENTRAL PENNSYLVANIA

CITY           SKY/WX    TMP DP  RH WIND       PRES   REMARKS
BRADFORD       LGT SNOW  25  20  81 N14G24    29.86R WCI  13
DUBOIS         CLOUDY    27  24  89 NW12      29.90R
CLEARFIELD     LGT SNOW  28  25  88 W7        29.90R FOG
JOHNSTOWN      LGT SNOW  26  22  84 NW21G31   29.88R FOG     WCI  12
ALTOONA        CLOUDY    29  23  78 NW9       29.92R
STATE COLLEGE  FLURRIES  29  25  84 W10G18    29.89S
WILLIAMSPORT   LGT SNOW  27  24  89 W7        29.88S VSB 1
SELINSGROVE    LGT SNOW  29  26  89 SW3       29.90R FOG
FT INDIANTOWN  MIX PCPN  32  25  77 W10G18    29.88S
CAPITAL CITY   CLOUDY    29  25  85 W12       29.90R
HARRISBURG     CLOUDY    30  25  81 NW13      29.89S
YORK           CLOUDY    32  26  78 W9        29.89S
$$

PAZ038>040-043-044-047-048-054-055-060>062-067>071-301100-
EASTERN PENNSYLVANIA

CITY           SKY/WX    TMP DP  RH WIND       PRES   REMARKS
SCRANTON       LGT SNOW  27  23  85 SW7       29.82S FOG
MOUNT POCONO   LGT SNOW  24  21  88 NW8       29.75F FOG
ALLENTOWN      LGT SNOW  28  25  86 W3        29.85F FOG
QUAKERTOWN*    CLOUDY    28  25  86 CALM      29.85F
READING        CLOUDY    28  25  88 CALM      29.88S
LANCASTER      CLOUDY    29  24  82 NW6       29.89R
COATESVILLE    CLOUDY    32  28  86 W9        29.87S
POTTSTOWN      CLOUDY    29  25  85 W3        29.88S
BLUE BELL      CLOUDY    32  27  80 NW3       29.85F
DOYLESTOWN     CLOUDY    28  26  92 CALM      29.84F
WILLOW GROVE   NOT AVBL
NORTH PHILA    CLOUDY    34  24  67 W5        29.88F
PHILADELPHIA   CLOUDY    34  25  69 W6        29.88S
$$


USA.gov is the U.S. government's official web portal to all federal, state and local government web resources and services.